Voltar ao catálogo

STARLINK-34402

AtivoComunicaçõesVLEO
NORAD 64446·PAYLOAD·🇺🇸 United States

Lançado Jun 18, 2025 de Cape Canaveral Space Force Station

Loading…

Próximas Passagens (próximas 24 horas)

TLE

AtualizadoSource: CelesTrak SupGP

Época: Sep 14, 2026, 21:41 UTC

1 64446C 25130J   26257.90395833  .00041593  00000+0  12292-2 0  2573
2 64446  53.1558 287.5664 0001176  98.0358 208.3299 15.34361545    10

Acompanhe STARLINK-34402 em tempo real com AllMySat

Download on the App Store